Bakersfield, CA

8:50 AM PST on December 16, 2017 (GMT -0800)
Meadows

Weather History for KBFL - August, 2013

Change the Weather History Date:

Tuesday, August 27, 2013

  Actual Average Record
Temperature  
Mean Temperature 83 °F 81 °F  
Max Temperature 97 °F 94 °F 111 °F (1931)
Min Temperature 68 °F 68 °F 45 °F (1903)
Degree Days  
Heating Degree Days 0    
Month to date heating degree days 0  
Since 1 June heating degree days 0  
Since 1 July heating degree days 0  
Cooling Degree Days 18    
Month to date cooling degree days 475  
Year to date cooling degree days 2033  
Since 1 June cooling degree days 1654  
Growing Degree Days 32 (Base 50)    
Moisture  
Dew Point 52 °F    
Average Humidity 42    
Maximum Humidity 66    
Minimum Humidity 18    
Precipitation  
Precipitation 0.00 in 0.00 in 0.00 in (2017)
Month to date precipitation 0.00 0.03  
Year to date precipitation 2.36 4.42  
Since 1 July precipitation T  
Snow  
Snow 0.00 in - - ()
Month to date snowfall 0.0  
Since 1 June snowfall 0.0  
Since 1 July snowfall 0.0  
Snow Depth 0.00 in    
Sea Level Pressure  
Sea Level Pressure 29.79 in    
Wind  
Wind Speed 7 mph (NW)    
Max Wind Speed 17 mph    
Max Gust Speed 21 mph    
Visibility 10 miles    
Events      
T = Trace of Precipitation, MM = Missing Value Source: NWS Daily Summary

Daily Weather History Graph

Daily Weather History Graph

Search for Another Location

Airport or City:

Trip Planner

Search our weather history database for the weather conditions in past years. The results will help you decide how hot, cold, wet, or windy it might be!

Date:

Astronomy

Aug. 27, 2013 Rise Set
Actual Time 6:25 AM PDT 7:29 PM PDT
Civil Twilight 5:58 AM PDT 7:55 PM PDT
Nautical Twilight 5:27 AM PDT 8:26 PM PDT
Astronomical Twilight 4:55 AM PDT 8:59 PM PDT
Moon 11:42 PM PDT (8/27) 1:11 PM PDT (8/27)
Length of Visible Light 13h 57m
Length of Day
13h 04m
Waning Gibbous, 56% of the Moon is Illuminated
Aug 27
Waning Gibbous
Aug 28
Last Quarter
Sep 5
New
Sep 12
First Quarter
Sep 19
Full

Hourly Weather History & Observations

Time (PDT) Temp. Heat Index Dew Point Humidity Pressure Visibility Wind Dir Wind Speed Gust Speed Precip Events Conditions
12:54 AM 79.0 °F - 54.0 °F 42% 29.84 in 10.0 mi NNW 9.2 mph - N/A   Clear
1:54 AM 77.0 °F - 54.0 °F 45% 29.83 in 10.0 mi NNW 8.1 mph - N/A   Clear
2:54 AM 75.0 °F - 55.0 °F 50% 29.83 in 10.0 mi WNW 8.1 mph - N/A   Clear
3:54 AM 72.0 °F - 57.9 °F 61% 29.83 in 10.0 mi WNW 5.8 mph - N/A   Clear
4:54 AM 69.1 °F - 57.0 °F 65% 29.84 in 10.0 mi NW 6.9 mph - N/A   Clear
5:54 AM 70.0 °F - 55.9 °F 61% 29.85 in 10.0 mi Calm Calm - N/A   Clear
6:54 AM 71.1 °F - 55.9 °F 59% 29.86 in 10.0 mi SSE 4.6 mph - N/A   Scattered Clouds
7:54 AM 73.9 °F - 55.0 °F 52% 29.86 in 10.0 mi South 6.9 mph - N/A   Clear
8:54 AM 73.0 °F - 54.0 °F 51% 29.86 in 10.0 mi SE 8.1 mph - N/A   Mostly Cloudy
9:54 AM 79.0 °F - 52.0 °F 39% 29.85 in 10.0 mi South 4.6 mph - N/A   Scattered Clouds
10:54 AM 82.0 °F - 50.0 °F 33% 29.83 in 10.0 mi Variable 3.5 mph - N/A   Clear
11:54 AM 86.0 °F - 50.0 °F 29% 29.81 in 10.0 mi West 5.8 mph - N/A   Clear
12:54 PM 89.1 °F 86.7 °F 53.1 °F 29% 29.79 in 10.0 mi Variable 3.5 mph - N/A   Clear
1:54 PM 91.9 °F 90.3 °F 55.9 °F 30% 29.76 in 10.0 mi West 8.1 mph - N/A   Clear
2:54 PM 93.0 °F 91.7 °F 57.0 °F 30% 29.73 in 10.0 mi WNW 12.7 mph - N/A   Clear
3:54 PM 95.0 °F 93.4 °F 55.9 °F 27% 29.71 in 10.0 mi NW 11.5 mph - N/A   Clear
4:54 PM 95.0 °F 93.7 °F 57.0 °F 28% 29.70 in 10.0 mi NNW 12.7 mph - N/A   Mostly Cloudy
5:54 PM 93.9 °F 92.2 °F 55.9 °F 28% 29.70 in 10.0 mi North 12.7 mph - N/A   Partly Cloudy
6:54 PM 93.0 °F 91.1 °F 55.0 °F 28% 29.70 in 10.0 mi North 9.2 mph - N/A   Clear
7:54 PM 90.0 °F 87.9 °F 55.0 °F 30% 29.72 in 10.0 mi North 5.8 mph - N/A   Clear
8:54 PM 89.1 °F 87.1 °F 55.0 °F 31% 29.75 in 10.0 mi NW 9.2 mph - N/A   Scattered Clouds
9:54 PM 84.9 °F - 39.9 °F 20% 29.77 in 10.0 mi NNW 12.7 mph - N/A   Clear
10:54 PM 82.0 °F - 35.1 °F 18% 29.77 in 10.0 mi NW 6.9 mph - N/A   Clear
11:54 PM 81.0 °F - 34.0 °F 18% 29.78 in 10.0 mi North 5.8 mph - N/A   Clear